Flag for South Korea Weather past 2 weeks in Seoul, South Korea

41 °F


Feels Like: 38 °F
Forecast: 26 / 42 °F
Wind: 5 mph from North

Location: Seoul / Kimp'O International Airport

Current Time: Nov 30, 2015 at 3:49:00 AM

Latest Report: Nov 30, 2015 at 3:00 AM

Visibility: 2 mi

Pressure: 30.21 "Hg

Humidity: 93%

Dew point: 39 °F

Location of SeoulLocation

Historic Weather in Seoul — Graph


Seoul temperature yesterday

Maximum temperature yesterday: 41 °F (at 1:00 PM)
Minimum temperature yesterday: 36 °F (at 12:00 AM)
Average temperature yesterday: 39 °F

Past Weeks' High & Low Weather Summary

High64 °F (Nov 17, 2:00 PM)94% (Nov 15, 2:00 AM)30.45 "Hg (Nov 15, 2:00 AM)
Low21 °F (Nov 27, 4:00 AM)38% (Nov 21, 2:00 PM)29.95 "Hg (Nov 16, 6:00 PM)
Average44 °F70%30.21 "Hg
* Reported Nov 15 2:00 AM — Nov 30 2:00 AM, Seoul, Weather by CustomWeather, © 2015

Note: Actual official high and low records may vary slightly from our data, if they occured in-between our weather recording intervals... More about our weather records


Seoul weather history for previous 24 hours

Time TempWeatherWind HumidityBarometerVisibility
2:00 AM
Mon, Nov 30
41 °FFog.1 mph87%30.18 "Hg2 mi
1:00 AM41 °FLight rain. Fog.5 mph87%30.18 "Hg2 mi
12:00 AM41 °FLight rain. Fog.5 mph87%30.21 "Hg2 mi
11:00 PM
Sun, Nov 29
41 °FLight rain. Fog.1 mph87%30.21 "Hg2 mi
10:00 PM41 °FLight rain. Fog.1 mph87%30.21 "Hg2 mi
9:00 PM41 °FLight rain. Fog.7 mph81%30.21 "Hg2 mi
8:00 PM41 °FLight rain. Fog.9 mph81%30.21 "Hg2 mi
7:00 PM41 °FLight rain. Fog.8 mph81%30.21 "Hg3 mi
6:00 PM41 °FFog.8 mph76%30.24 "Hg3 mi
5:00 PM41 °FFog.8 mph76%30.24 "Hg3 mi
4:00 PM41 °FFog.7 mph76%30.24 "Hg3 mi
3:00 PM41 °FFog.7 mph76%30.24 "Hg3 mi
2:00 PM41 °FFog.5 mph76%30.27 "Hg3 mi
1:00 PM41 °FFog.9 mph76%30.30 "Hg2 mi
12:00 PM39 °FFog.8 mph81%30.33 "Hg2 mi
11:00 AM37 °FLight rain. Fog.8 mph81%30.36 "Hg2 mi
10:00 AM37 °FLight rain. Fog.9 mph81%30.36 "Hg2 mi
9:00 AM37 °FLight rain. Fog.7 mph75%30.36 "Hg2 mi
8:00 AM36 °FLight rain. Fog.7 mph75%30.39 "Hg3 mi
7:00 AM36 °FLight rain. Fog.7 mph75%30.36 "Hg3 mi
6:00 AM36 °FLight rain. Fog.7 mph75%30.39 "Hg3 mi
5:00 AM36 °FLight rain. Fog.5 mph75%30.39 "Hg3 mi
4:00 AM37 °FMostly cloudy.5 mph70%30.39 "Hg4 mi
3:00 AM37 °FPartly cloudy.7 mph70%30.39 "Hg4 mi
Weather by CustomWeather, © 2015

See weather overviewHow to use our weather pages